Weather Roundup
Issued by NWS

Home | Current Version | Previous Version | Graphics & Text | Print | Product List | Glossary Off
Versions: 1 2 3 4 5 6 7 8 9 10 11 12 13 14 15 16 17 18 19 20 21 22 23 24 25 26 27 28 29 30 31 32 33 34 35 36 37 38 39 40 41 42 43 44 45 46 47 48 49 50

000
NZUS93 KARX 070710
HRRWXR

CURRENT HOURLY OBSERVATIONS ACROSS
MUCH OF THE UPPER MISSISSIPPI VALLEY
NATIONAL WEATHER SERVICE LA CROSSE WI
100 AM CST SUN FEB 07 2016


...SOUTHEAST MINNESOTA...


CITY           SKY/WX    TMP DP  RH WIND       PRES   REMARKS
ROCHESTER      CLOUDY    32  28  85 S24       29.72F WCI  19
ROCHESTER/MAYO CLOUDY    32  29  89 S15G25    29.73F WCI  22
WINONA         CLOUDY    36  30  80 S6        29.78F WCI  31
AUSTIN         MOCLDY    32  28  86 S16       29.74F WCI  21
ALBERT LEA     CLOUDY    34  28  80 SW13G20   29.74F WCI  25
DODGE CENTER   CLOUDY    30  28  93 SW22G29   29.71F WCI  17
PRESTON        CLOUDY    32  28  86 SW15G24   29.78F WCI  22
OWATONNA       PTCLDY    32  27  80 S20       29.73S WCI  20
FARIBAULT        N/A     34  28  80 SW15      29.75R WCI  24
$$

...ELSEWHERE IN MINNESOTA...


CITY           SKY/WX    TMP DP  RH WIND       PRES   REMARKS
MINNEAPOLIS    MOCLDY    34  27  75 SW10      29.70F WCI  26
INTNL FALLS    CLOUDY    32  30  92 VRB5      29.43F WCI  27
DULUTH         FRZ DRZL  32  30  92 SW14      29.55F FOG     WCI  22
RED WING       CLOUDY    36  27  69 S6        29.71S WCI  31
REDWOOD FALLS  PTCLDY    35  28  75 SW14      29.69F WCI  26
MANKATO        MOCLDY    34  27  75 SW12      29.73R WCI  25
WORTHINGTON    CLOUDY    32  25  74 W15       29.78F WCI  22
FAIRMONT       CLOUDY    34  27  75 SW12      29.73F WCI  25
$$

...SOUTHWEST WISCONSIN...


CITY           SKY/WX    TMP DP  RH WIND       PRES   REMARKS
LA CROSSE      CLOUDY    33  28  81 S13       29.81F WCI  24
PRAIRIE DU CHI CLOUDY    37  29  72 S5        29.88F WCI  33
BOSCOBEL       CLOUDY    36  32  85 SW7       29.88F WCI  30
LONE ROCK      CLOUDY    37  29  72 S12G18    29.89F WCI  29
PLATTEVILLE    PTCLDY    35  32  88 S14       29.90F WCI  25
FORT MC COY    CLOUDY    33  29  85 SW6       29.83F WCI  28
CAMP DOUGLAS   CLOUDY    32  32 100 S6        29.82F WCI  27
VIROQUA        PTSUNNY   33  30  90 SW15      29.83F WCI  23
WIS DELLS      CLOUDY    32  28  84 S12       29.86F WCI  23
$$

...ELSEWHERE IN WISCONSIN...


CITY           SKY/WX    TMP DP  RH WIND       PRES   REMARKS
MILWAUKEE      CLOUDY    33  28  81 SW7       29.98F WCI  27
MADISON        CLOUDY    33  28  81 S9        29.92F WCI  25
GREEN BAY      CLOUDY    30  26  85 S9        29.88F WCI  22
EAU CLAIRE     CLOUDY    32  26  78 S12       29.72F WCI  23
BLACK RVR FLS  CLOUDY    33  28  81 S7        29.80F WCI  27
MEDFORD        LGT SNOW  28  27  96 S13       29.74F WCI  17
WAUSAU         CLOUDY    31  24  75 S13       29.78F WCI  21
WIS RAPIDS     CLOUDY    31  25  78 S9        29.83F WCI  23
MARSHFIELD     LGT SNOW  30  24  78 S12       29.78F WCI  20
RICE LAKE      CLOUDY    31  27  86 S10       29.71F WCI  22
$$

...NORTHEAST IOWA...


CITY           SKY/WX    TMP DP  RH WIND       PRES   REMARKS
WATERLOO       CLOUDY    36  29  75 SW15      29.87F WCI  27
DUBUQUE        CLOUDY    34  29  82 S16       29.90F WCI  24
DECORAH        CLOUDY    34  32  93 S8G18     29.82F WCI  27
MASON CITY     CLOUDY    34  27  75 SW20      29.80F WCI  23
CHARLES CITY   CLOUDY    34  34 100 SW14      29.82F WCI  24
OELWEIN        CLOUDY    34  32  93 SW14      29.87F WCI  24
$$

...ELSEWHERE IN IOWA...


CITY           SKY/WX    TMP DP  RH WIND       PRES   REMARKS
DES MOINES     CLOUDY    37  27  67 SW12      29.92R WCI  29
IOWA CITY      CLOUDY    37  30  75 S13       29.95F WCI  29
FORT DODGE     CLOUDY    34  25  69 SW12      29.84F WCI  25
MARSHALLTOWN   MOCLDY    36  28  73 SW13      29.88S WCI  27
CEDAR RAPIDS   CLOUDY    36  31  82 S16       29.89F WCI  26
$$

...NORTHERN ILLINOIS...


CITY           SKY/WX    TMP DP  RH WIND       PRES   REMARKS
CHICAGO-OHARE  CLOUDY    34  29  82 SW6       30.02F WCI  29
CHICAGO-MIDWAY MOCLDY    35  28  75 S7        30.04F WCI  29
MOLINE         CLOUDY    39  29  67 S13       29.98F WCI  31
ROCKFORD       CLOUDY    32  29  88 S8        30.00F WCI  25
PEORIA         PTCLDY    34  27  75 SW8       30.06F WCI  27
$$

NOTE: "FAIR" INDICATES FEW OR NO CLOUDS BELOW 12,000 FEET WITH NO
SIGNIFICANT WEATHER AND/OR OBSTRUCTIONS TO VISIBILITY. WIND
SPEEDS ARE IN MILES-PER-HOUR.




USA.gov is the U.S. government's official web portal to all federal, state and local government web resources and services.